Location: Newark
(40.4500°N, 15.1500°E)
Time: 11:09:11
(UTC+00:00)

Starlink Launch 2 trailer - Visible Passes

Search period start: 06 December 2019 00:00
Search period end: 16 December 2019 00:00
Orbit: 279 x 281 km, 53.0° (Epoch: 13 November)

Date Brightness Start Highest point End Pass type
(mag) Time Alt. Az. Time Alt. Az. Time Alt. Az.
06 Dec 4.4 05:17:51 10° NNW 05:19:43 19° NNE 05:21:36 10° E visible
07 Dec 3.6 05:19:37 11° NNW 05:21:46 33° NE 05:24:02 10° ESE visible
08 Dec 2.3 05:21:39 13° NW 05:23:44 72° NE 05:26:10 10° SE visible
09 Dec 2.8 05:23:44 14° WNW 05:25:38 45° SW 05:27:59 10° SSE visible
10 Dec 6.0 03:55:44 12° E 03:55:44 12° E 03:55:58 10° E visible
10 Dec 4.0 05:25:53 12° W 05:27:28 20° SW 05:29:22 10° S visible
11 Dec 5.9 03:57:58 13° ESE 03:57:58 13° ESE 03:58:17 10° ESE visible
12 Dec 5.9 04:00:16 10° SE 04:00:16 10° SE 04:00:18 10° SE visible
